TimeCST,TemperatureF,Dew PointF,Humidity,Sea Level PressureIn,VisibilityMPH,Wind Direction,Wind SpeedMPH,Gust SpeedMPH,PrecipitationIn,Events,Conditions,WindDirDegrees,DateUTC
12:12 AM,32.4,21.9,65,30.14,10.0,North,-9999.0,-,N/A,,Clear,0,2013-11-30 06:12:00
12:32 AM,32.0,21.7,66,30.12,10.0,North,-9999.0,-,N/A,,Clear,0,2013-11-30 06:32:00
12:52 AM,32.0,22.1,67,30.11,10.0,North,-9999.0,-,N/A,,Clear,0,2013-11-30 06:52:00
1:12 AM,32.0,22.1,67,30.10,10.0,North,-9999.0,-,N/A,,Clear,0,2013-11-30 07:12:00
1:32 AM,31.6,22.3,68,30.10,10.0,North,-9999.0,-,N/A,,Clear,0,2013-11-30 07:32:00
1:52 AM,31.8,22.8,69,30.08,10.0,North,-9999.0,-,N/A,,Clear,0,2013-11-30 07:52:00
2:12 AM,30.4,22.6,73,30.08,10.0,North,-9999.0,-,N/A,,Clear,0,2013-11-30 08:12:00
2:32 AM,31.1,23.0,72,30.08,10.0,North,-9999.0,-,N/A,,Clear,0,2013-11-30 08:32:00
2:52 AM,31.8,23.5,71,30.07,10.0,North,-9999.0,-,N/A,,Clear,0,2013-11-30 08:52:00
3:12 AM,31.6,23.7,73,30.06,10.0,North,-9999.0,-,N/A,,Clear,0,2013-11-30 09:12:00
3:32 AM,31.3,23.5,73,30.05,10.0,North,-9999.0,-,N/A,,Clear,0,2013-11-30 09:32:00
3:52 AM,31.1,23.7,74,30.04,10.0,North,-9999.0,-,N/A,,Clear,0,2013-11-30 09:52:00
4:12 AM,31.5,23.9,74,30.04,10.0,North,-9999.0,-,N/A,,Clear,0,2013-11-30 10:12:00
4:32 AM,31.6,23.9,73,30.05,10.0,North,-9999.0,-,N/A,,Clear,0,2013-11-30 10:32:00
4:52 AM,31.6,23.9,73,30.04,10.0,North,-9999.0,-,N/A,,Clear,0,2013-11-30 10:52:00
5:12 AM,31.5,23.9,74,30.04,10.0,North,-9999.0,-,N/A,,Clear,0,2013-11-30 11:12:00
5:32 AM,31.3,23.9,74,30.04,10.0,North,-9999.0,-,N/A,,Clear,0,2013-11-30 11:32:00
5:52 AM,30.6,23.7,76,30.04,10.0,North,-9999.0,-,N/A,,Clear,0,2013-11-30 11:52:00
6:12 AM,29.5,23.0,77,30.04,10.0,North,-9999.0,-,N/A,,Clear,0,2013-11-30 12:12:00
6:32 AM,28.4,23.0,80,30.05,10.0,North,-9999.0,-,N/A,,Clear,0,2013-11-30 12:32:00
6:52 AM,27.0,22.5,83,30.04,7.0,North,-9999.0,-,N/A,,Clear,0,2013-11-30 12:52:00
7:12 AM,26.2,21.4,82,30.04,10.0,North,-9999.0,-,N/A,,Clear,0,2013-11-30 13:12:00
7:32 AM,27.1,22.3,82,30.03,10.0,North,-9999.0,-,N/A,,Clear,0,2013-11-30 13:32:00
7:52 AM,28.0,22.8,81,30.04,7.0,North,-9999.0,-,N/A,,Clear,0,2013-11-30 13:52:00
8:12 AM,28.4,23.4,81,30.04,10.0,North,-9999.0,-,N/A,,Clear,0,2013-11-30 14:12:00
8:32 AM,30.0,24.8,81,30.04,7.0,North,-9999.0,-,N/A,,Clear,0,2013-11-30 14:32:00
8:52 AM,31.1,24.6,77,30.05,10.0,North,-9999.0,-,N/A,,Clear,0,2013-11-30 14:52:00
9:12 AM,32.0,25.5,77,30.05,10.0,North,-9999.0,-,N/A,,Clear,0,2013-11-30 15:12:00
9:32 AM,32.9,25.7,75,30.05,10.0,North,-9999.0,-,N/A,,Clear,0,2013-11-30 15:32:00
9:52 AM,34.2,26.2,73,30.05,10.0,North,-9999.0,-,N/A,,Clear,0,2013-11-30 15:52:00
10:12 AM,34.9,25.9,70,30.06,10.0,North,-9999.0,-,N/A,,Clear,0,2013-11-30 16:12:00
10:32 AM,35.6,26.2,69,30.06,10.0,North,-9999.0,-,N/A,,Clear,0,2013-11-30 16:32:00
10:52 AM,36.0,25.9,67,30.05,10.0,North,-9999.0,-,N/A,,Clear,0,2013-11-30 16:52:00
11:12 AM,36.3,26.2,67,30.05,10.0,North,-9999.0,-,N/A,,Clear,0,2013-11-30 17:12:00
11:32 AM,37.4,26.4,65,30.04,10.0,North,-9999.0,-,N/A,,Clear,0,2013-11-30 17:32:00
11:52 AM,38.5,26.6,62,30.04,10.0,North,-9999.0,-,N/A,,Clear,0,2013-11-30 17:52:00
12:12 PM,37.9,26.4,63,30.04,10.0,North,-9999.0,-,N/A,,Clear,0,2013-11-30 18:12:00
12:32 PM,39.6,26.4,59,30.03,10.0,North,-9999.0,-,N/A,,Clear,0,2013-11-30 18:32:00
12:52 PM,40.1,26.6,59,30.03,10.0,North,-9999.0,-,N/A,,Clear,0,2013-11-30 18:52:00
1:12 PM,41.2,26.2,55,30.03,10.0,WNW,3.5,-,N/A,,Mostly Cloudy,300,2013-11-30 19:12:00
1:32 PM,41.9,26.6,55,30.02,10.0,Calm,Calm,-,N/A,,Overcast,0,2013-11-30 19:32:00
1:52 PM,41.5,26.4,55,30.02,10.0,Calm,Calm,-,N/A,,Overcast,0,2013-11-30 19:52:00
2:12 PM,41.2,26.4,56,30.02,10.0,Calm,Calm,-,N/A,,Overcast,0,2013-11-30 20:12:00
2:32 PM,42.3,26.6,54,30.02,10.0,Calm,Calm,-,N/A,,Overcast,0,2013-11-30 20:32:00
2:52 PM,42.1,26.4,54,30.03,10.0,Calm,Calm,-,N/A,,Overcast,0,2013-11-30 20:52:00
3:12 PM,42.3,26.4,54,30.04,10.0,Calm,Calm,-,N/A,,Overcast,0,2013-11-30 21:12:00
3:32 PM,42.3,26.4,54,30.04,10.0,NNW,3.5,-,N/A,,Overcast,330,2013-11-30 21:32:00
3:52 PM,41.9,26.6,55,30.04,10.0,WNW,5.8,-,N/A,,Overcast,300,2013-11-30 21:52:00
4:12 PM,41.0,26.6,57,30.05,10.0,WNW,4.6,-,N/A,,Overcast,290,2013-11-30 22:12:00
4:32 PM,40.8,26.6,57,30.05,10.0,Calm,Calm,-,N/A,,Overcast,0,2013-11-30 22:32:00
4:52 PM,40.5,26.6,58,30.06,10.0,Calm,Calm,-,N/A,,Overcast,0,2013-11-30 22:52:00
5:12 PM,40.3,26.6,58,30.06,10.0,Calm,Calm,-,N/A,,Overcast,0,2013-11-30 23:12:00
5:32 PM,39.7,26.6,59,30.07,10.0,NW,4.6,-,N/A,,Mostly Cloudy,320,2013-11-30 23:32:00
5:52 PM,40.3,26.6,58,30.08,10.0,NNW,5.8,-,N/A,,Mostly Cloudy,330,2013-11-30 23:52:00
6:12 PM,39.9,26.4,59,30.09,10.0,NW,4.6,-,N/A,,Overcast,320,2013-12-01 00:12:00
6:32 PM,39.7,25.7,57,30.10,10.0,NNW,8.1,-,N/A,,Overcast,330,2013-12-01 00:32:00
6:52 PM,39.2,25.7,58,30.10,10.0,NNW,5.8,-,N/A,,Overcast,340,2013-12-01 00:52:00
7:12 PM,38.3,25.5,60,30.10,10.0,NNW,6.9,-,N/A,,Mostly Cloudy,330,2013-12-01 01:12:00
7:32 PM,37.6,25.5,62,30.10,10.0,NNW,6.9,-,N/A,,Scattered Clouds,340,2013-12-01 01:32:00
7:52 PM,37.6,25.5,62,30.11,10.0,North,6.9,-,N/A,,Clear,350,2013-12-01 01:52:00
8:12 PM,37.2,25.3,62,30.11,10.0,North,4.6,-,N/A,,Clear,350,2013-12-01 02:12:00
8:32 PM,37.0,25.0,62,30.12,10.0,North,3.5,-,N/A,,Clear,350,2013-12-01 02:32:00
8:52 PM,36.5,25.2,64,30.11,10.0,North,3.5,-,N/A,,Clear,350,2013-12-01 02:52:00
9:12 PM,36.0,24.8,64,30.12,10.0,North,4.6,-,N/A,,Clear,360,2013-12-01 03:12:00
9:32 PM,35.8,24.8,64,30.12,10.0,North,5.8,-,N/A,,Clear,360,2013-12-01 03:32:00
9:52 PM,35.6,24.8,65,30.12,10.0,North,5.8,-,N/A,,Clear,360,2013-12-01 03:52:00
10:12 PM,35.1,24.8,66,30.13,10.0,North,4.6,-,N/A,,Clear,360,2013-12-01 04:12:00
10:32 PM,34.3,24.8,68,30.13,10.0,North,3.5,-,N/A,,Clear,360,2013-12-01 04:32:00
10:52 PM,34.0,24.6,69,30.14,10.0,North,3.5,-,N/A,,Clear,350,2013-12-01 04:52:00
11:12 PM,33.4,24.6,70,30.14,10.0,North,3.5,-,N/A,,Clear,350,2013-12-01 05:12:00
11:32 PM,33.3,24.6,71,30.15,10.0,North,3.5,-,N/A,,Clear,350,2013-12-01 05:32:00
11:52 PM,32.9,24.6,72,30.15,10.0,NNW,3.5,-,N/A,,Clear,340,2013-12-01 05:52:00